Preview of NWS' New Version of Forecast
This preview is not operational and should not be used for support decisions.

Regional Weather Roundup (RWR)

Issued by National Weather Service (NWS)

                            
000
ASUS46 KPQR 171910
RWROR 

OREGON REGIONAL WEATHER ROUNDUP
NATIONAL WEATHER SERVICE PORTLAND OR
1200 PM PDT MON JUN 17 2019

NOTE: "FAIR" INDICATES FEW OR NO CLOUDS BELOW 12,000 FEET WITH
NO SIGNIFICANT WEATHER AND/OR OBSTRUCTIONS TO VISIBILITY.

ORZ001>013-172000-
NORTHWEST OREGON

  
CITY           SKY/WX    TMP DP  RH WIND       PRES   REMARKS
ASTORIA        CLOUDY    60  54  80 NW10      30.20R                  
TILLAMOOK      SUNNY     64  54  68 N9        30.20R                  
PORTLAND       PTSUNNY   67  52  58 CALM      30.16S                  
VANCOUVER WA   MOSUNNY   66  52  60 CALM      30.15S                  
SCAPPOOSE      SUNNY     67  55  65 E7        30.14S                  
HILLSBORO      SUNNY     70  53  54 VRB3      30.14S                  
AURORA         SUNNY     72  53  51 N5        30.15S                  
MCMINNVILLE    SUNNY     73  53  49 N6        30.13F                  
SALEM          SUNNY     72  51  47 NW7       30.13S                  
CORVALLIS      SUNNY     73  53  49 SE3       30.14S                  
EUGENE         MOSUNNY   76  53  44 N9        30.14S                  
$$

ORZ021-028-172000-
SOUTHWEST OREGON

  
CITY           SKY/WX    TMP DP  RH WIND       PRES   REMARKS
NORTH BEND     SUNNY     59  53  80 N22       30.16S                  
BROOKINGS      SUNNY     84  54  35 NW9G16    29.98F                  
ROSEBURG       SUNNY     78  48  34 N12       30.09F                  
SEXTON SUMMIT  SUNNY     69  47  45 VRB6      30.16R                  
GRANTS PASS    FAIR      81  43  26 NW13G18   30.07F                  
MEDFORD        SUNNY     78  45  30 VRB3      30.05F                  
$$

ORZ014>016-041-172000-
COLUMBIA GORGE

  
CITY           SKY/WX    TMP DP  RH WIND       PRES   REMARKS
TROUTDALE      CLOUDY    64  53  67 W5        30.16S                  
HOOD RIVER     SUNNY     75  52  43 W7G17     30.04S                  
THE DALLES     SUNNY     77  54  44 NW21      29.99S                  
$$

ORZ029>031-041-044-049-050-061>064-502-503-505>511-172000-
EASTERN OREGON

  
CITY           SKY/WX    TMP DP  RH WIND       PRES   REMARKS
MADRAS         SUNNY     77  45  31 MISG      30.09S                  
REDMOND        SUNNY     78  40  25 N12G18    30.10S                  
BEND           SUNNY     77  36  22 NW13      30.11R                  
PRINEVILLE     SUNNY     75  41  29 W13       30.10S                  
KLAMATH FALLS  SUNNY     76  40  27 N8        30.10S                  
LAKEVIEW       SUNNY     75  41  29 N14       30.12S                  
HERMISTON      SUNNY     84  48  28 W9        29.97S                  
PENDLETON      SUNNY     81  47  30 NW9       30.00S                  
JOHN DAY       SUNNY     73  43  33 W8        30.10S                  
MEACHAM        SUNNY     70  46  42 CALM      30.10R                  
LA GRANDE      SUNNY     78  48  34 W12       30.03S                  
BAKER CITY     SUNNY     78  50  37 NW6       30.04F                  
BURNS          SUNNY     78  36  21 NW12G18   30.09S                  
ROME             N/A     82  39  21 CALM      30.04S                  
ONTARIO        SUNNY     87  45  23 VRB3      29.96S                  
$$